{"data":{"norad_id":40014,"intl_designator":"2014-033E","name":"BUGSAT-1 (TITA)","alt_names":[],"object_type":"PAYLOAD","status":"ACTIVE","operator":null,"country":"ARGN","launch_date":"2014-06-19","launch_site_code":"DLS","launch_vehicle":null,"mission":null,"orbit_class":"UNKNOWN","rcs_meters":0.2726,"size_class":null,"mass_kg":null,"dimensions":null,"purposes":["tech_demo"],"wikipedia_slug":null,"has_3d_model":false,"image_url":null,"decayed_at":null,"tle_current":{"epoch":"2026-05-25T04:34:09.295104Z","epoch_age_seconds":51930,"freshness":"FRESH","line1":"1 40014U 14033E   26145.19038536  .00005302  00000+0  28309-3 0  9997","line2":"2 40014  98.0414 236.3999 0026902 258.6548 101.1660 15.15301772652353","mean_motion":15.15301772,"eccentricity":0.0026902,"inclination_deg":98.0414,"raan_deg":236.3999,"arg_perigee_deg":258.6548,"mean_anomaly_deg":101.166,"bstar":0.00028309,"rev_number":65235,"period_min":95.030575863406,"perigee_km":501.50502166025,"apogee_km":538.62009456271,"semimajor_km":6898.1995581115,"source":"CELESTRAK","updated_at":"2026-05-25T13:38:24.896332Z"}}}